Date String (YYYY-MM-DD hh:mm:ss) UTC,Instrument flags,Ambient pressure (hPa),Sample flow (lpm),Bypass flow (lpm),Sample temperature (°C),Ambient temperature (°C),ASC tube jacket temperature (°C),LED temperature (°C),Box temperature (°C),Sample RH (%),Span deviation,Mass concentration (μg/m³),Mass concentration (μg/m³),Mass concentration (μg/m³)
DateTimeUTC,F1_M11,P_M11,Q1_M11,Q2_M11,T1_M11,T2_M11,T3_M11,T4_M11,T5_M11,U1_M11,ZSPAN_M11,X2_M11,X0_M11,X1_M11
2021-12-19 00:00:00,,0827.4,4.99,0.00,24.9,24.0,00.0,33.8,26.7,07.1,0000.0,0008.07,0019.51,0007.05
2021-12-19 00:01:00,,0827.1,5.00,0.00,24.9,24.0,00.0,33.8,26.7,07.1,0000.0,0007.99,0019.14,0007.03
2021-12-19 00:02:00,,0827.0,5.01,0.00,24.9,24.0,00.0,33.8,26.7,07.1,0000.0,0007.96,0018.29,0007.01
2021-12-19 00:03:00,,0827.1,4.99,0.00,24.9,23.9,00.0,33.8,26.7,07.1,0000.0,0007.97,0018.29,0007.00
2021-12-19 00:04:00,,0827.1,5.01,0.00,24.9,23.9,00.0,33.8,26.6,07.1,-000.2,0007.93,0019.06,0006.96
2021-12-19 00:05:00,,0827.2,4.99,0.00,24.8,23.9,00.0,33.8,26.6,07.1,-000.4,0007.89,0018.97,0006.94
2021-12-19 00:06:00,,0827.2,5.00,0.00,24.8,23.9,00.0,33.8,26.6,07.1,-000.5,0007.88,0018.55,0006.94
2021-12-19 00:07:00,,0827.0,5.01,0.00,24.8,23.9,00.0,33.8,26.6,07.1,-000.2,0007.84,0017.96,0006.94
2021-12-19 00:08:00,,0827.0,4.99,0.00,24.8,23.9,00.0,33.8,26.6,07.1,-000.3,0007.82,0017.27,0006.92
2021-12-19 00:09:00,,0827.3,5.00,0.00,24.8,23.9,00.0,33.8,26.6,07.1,0000.4,0007.85,0017.33,0006.90
2021-12-19 00:10:00,,0827.0,4.98,0.00,24.8,23.8,00.0,33.8,26.6,07.1,0001.0,0007.84,0017.22,0006.89
2021-12-19 00:11:00,,0827.0,5.01,0.00,24.8,23.8,00.0,33.8,26.6,07.1,0001.7,0007.90,0017.00,0006.90
2021-12-19 00:12:00,,0827.0,4.99,0.00,24.8,23.8,00.0,33.8,26.5,07.1,0001.3,0007.97,0017.40,0006.92
2021-12-19 00:13:00,,0827.0,5.01,0.00,24.8,23.8,00.0,33.7,26.5,07.1,0001.3,0007.99,0017.12,0006.93
2021-12-19 00:14:00,,0826.9,4.99,0.00,24.8,23.8,00.0,33.7,26.5,07.1,0002.1,0007.97,0016.64,0006.91
2021-12-19 00:15:00,,0827.0,5.00,0.00,24.8,23.8,00.0,33.7,26.5,07.1,0003.5,0008.04,0016.87,0006.95
2021-12-19 00:16:00,,0827.0,4.99,0.00,24.8,23.8,00.0,33.7,26.5,07.1,0004.0,0008.12,0017.77,0006.97
2021-12-19 00:17:00,,0827.0,5.00,0.00,24.7,23.8,00.0,33.7,26.5,07.1,0003.5,0008.07,0018.26,0006.95
2021-12-19 00:18:00,,0827.0,5.01,0.00,24.7,23.8,00.0,33.7,26.5,07.1,0003.3,0008.10,0018.43,0006.94
2021-12-19 00:19:00,,0827.0,4.99,0.00,24.7,23.8,00.0,33.7,26.5,07.1,0003.3,0008.06,0018.28,0006.93
2021-12-19 00:20:00,,0827.0,4.99,0.00,24.7,23.8,00.0,33.7,26.5,07.1,0000.8,0008.04,0017.71,0006.93
2021-12-19 00:21:00,,0827.0,5.00,0.00,24.7,23.7,00.0,33.7,26.5,07.1,0003.7,0008.03,0018.05,0006.93
2021-12-19 00:22:00,,0827.1,5.00,0.00,24.7,23.7,00.0,33.7,26.5,07.1,0003.7,0008.01,0018.01,0006.94
2021-12-19 00:23:00,,0826.9,5.00,0.00,24.7,23.7,00.0,33.7,26.5,07.1,0003.8,0008.04,0018.38,0006.95
2021-12-19 00:24:00,,0827.0,5.01,0.00,24.7,23.7,00.0,33.7,26.5,07.1,0004.1,0008.04,0019.29,0006.96
2021-12-19 00:25:00,,0826.9,4.99,0.00,24.7,23.7,00.0,33.7,26.5,07.1,0002.9,0008.04,0019.34,0006.96
2021-12-19 00:26:00,,0826.9,5.00,0.00,24.7,23.7,00.0,33.7,26.4,07.1,0000.0,0007.99,0018.32,0006.93
2021-12-19 00:27:00,,0827.0,5.00,0.00,24.7,23.7,00.0,33.6,26.4,07.2,0000.0,0008.01,0018.05,0006.89
2021-12-19 00:28:00,,0826.9,4.99,0.00,24.7,23.7,00.0,33.6,26.4,07.2,0000.0,0008.04,0017.58,0006.88
2021-12-19 00:29:00,,0827.0,5.01,0.00,24.6,23.7,00.0,33.6,26.4,07.2,0000.0,0008.00,0017.71,0006.85
2021-12-19 00:30:00,,0827.0,5.00,0.00,24.6,23.7,00.0,33.6,26.4,07.2,0000.0,0008.01,0019.10,0006.84
2021-12-19 00:31:00,,0827.0,5.01,0.00,24.6,23.6,00.0,33.6,26.4,07.2,0002.0,0007.99,0018.77,0006.84
2021-12-19 00:32:00,,0827.0,4.98,0.00,24.6,23.6,00.0,33.6,26.4,07.2,0002.6,0008.01,0018.41,0006.86
2021-12-19 00:33:00,,0826.9,5.01,0.00,24.6,23.6,00.0,33.6,26.4,07.2,0001.7,0008.03,0018.19,0006.86
2021-12-19 00:34:00,,0827.1,5.00,0.00,24.6,23.6,00.0,33.6,26.4,07.2,0000.0,0007.93,0017.71,0006.84
2021-12-19 00:35:00,,0827.0,5.00,0.00,24.6,23.6,00.0,33.6,26.4,07.2,0000.9,0007.91,0017.47,0006.82
2021-12-19 00:36:00,,0827.1,5.00,0.00,24.6,23.6,00.0,33.6,26.3,07.2,0003.3,0007.91,0017.14,0006.82
2021-12-19 00:37:00,,0827.1,5.00,0.00,24.6,23.6,00.0,33.6,26.3,07.2,0003.1,0007.88,0017.37,0006.84
2021-12-19 00:38:00,,0826.8,4.99,0.00,24.6,23.6,00.0,33.6,26.3,07.2,0003.1,0007.82,0018.12,0006.84
2021-12-19 00:39:00,,0826.7,4.99,0.00,24.5,23.6,00.0,33.5,26.3,07.2,0003.3,0007.78,0018.27,0006.83
2021-12-19 00:40:00,,0826.8,5.01,0.00,24.5,23.6,00.0,33.5,26.3,07.2,0004.3,0007.79,0018.00,0006.84
2021-12-19 00:41:00,,0826.8,5.00,0.00,24.5,23.6,00.0,33.5,26.3,07.2,0003.9,0007.78,0016.67,0006.86
2021-12-19 00:42:00,,0826.8,4.99,0.00,24.5,23.5,00.0,33.5,26.3,07.2,0003.7,0007.78,0016.89,0006.86
2021-12-19 00:43:00,,0826.7,5.01,0.00,24.5,23.5,00.0,33.5,26.3,07.2,0000.9,0007.77,0017.07,0006.85
2021-12-19 00:44:00,,0826.7,4.99,0.00,24.5,23.5,00.0,33.5,26.3,07.2,0003.3,0007.75,0017.75,0006.87
2021-12-19 00:45:00,,0826.7,5.01,0.00,24.5,23.5,00.0,33.5,26.3,07.2,0003.8,0007.88,0018.18,0006.91
2021-12-19 00:46:00,,0826.8,5.00,0.00,24.5,23.5,00.0,33.5,26.3,07.2,0003.6,0007.93,0017.65,0006.98
2021-12-19 00:47:00,,0826.8,5.00,0.00,24.5,23.5,00.0,33.5,26.3,07.2,0003.9,0008.07,0018.50,0007.10
2021-12-19 00:48:00,,0826.8,4.99,0.00,24.5,23.5,00.0,33.5,26.3,07.2,0003.6,0008.25,0018.54,0007.23
2021-12-19 00:49:00,,0826.8,5.00,0.00,24.5,23.5,00.0,33.5,26.3,07.2,0003.1,0008.40,0017.38,0007.39
2021-12-19 00:50:00,,0826.8,5.01,0.00,24.5,23.5,00.0,33.4,26.2,07.2,0002.7,0008.57,0017.37,0007.54
2021-12-19 00:51:00,,0826.8,4.98,0.00,24.4,23.5,00.0,33.4,26.2,07.2,0002.9,0008.77,0018.63,0007.69
2021-12-19 00:52:00,,0826.7,5.01,0.00,24.4,23.4,00.0,33.4,26.2,07.2,0003.3,0008.98,0019.66,0007.84
2021-12-19 00:53:00,,0826.7,4.99,0.00,24.4,23.4,00.0,33.4,26.2,07.2,0003.2,0009.16,0020.57,0007.97
2021-12-19 00:54:00,,0826.7,5.01,0.00,24.4,23.4,00.0,33.4,26.2,07.2,0003.2,0009.26,0020.65,0008.05
2021-12-19 00:55:00,,0826.7,4.99,0.00,24.4,23.4,00.0,33.4,26.2,07.2,0003.1,0009.34,0020.10,0008.10
2021-12-19 00:56:00,,0826.7,5.00,0.00,24.4,23.4,00.0,33.4,26.1,07.2,0003.1,0009.31,0019.18,0008.14
2021-12-19 00:57:00,,0826.7,5.00,0.00,24.4,23.4,00.0,33.4,26.1,07.2,0003.0,0009.35,0019.99,0008.15
2021-12-19 00:58:00,,0826.7,4.99,0.00,24.4,23.4,00.0,33.4,26.2,07.2,0003.0,0009.31,0019.33,0008.14
2021-12-19 00:59:00,,0826.7,5.00,0.00,24.4,23.4,00.0,33.4,26.1,07.2,0002.4,0009.24,0019.11,0008.07
